{"data":{"norad_id":67114,"epoch":"2026-09-19T10:11:39.840288Z","epoch_age_seconds":171914,"freshness":"FRESH","line1":"1 67114U 25299N   26262.42476667  .00009186  00000+0  34283-3 0  9992","line2":"2 67114  43.0037 155.0337 0001396 265.3378  94.7314 15.27587741 42747","mean_motion":15.27587741,"eccentricity":0.0001396,"inclination_deg":43.0037,"raan_deg":155.0337,"arg_perigee_deg":265.3378,"mean_anomaly_deg":94.7314,"bstar":0.00034283,"rev_number":4274,"period_min":94.266271020042,"perigee_km":482.06809845554,"apogee_km":483.98373514191,"semimajor_km":6861.1629167987,"source":"CELESTRAK","updated_at":"2026-09-21T09:00:36.106092Z"}}